George, South Africa

9:11 AM SAST on September 30, 2016 (GMT +0200)
George

Weather History for FAGG - October, 2012

Change the Weather History Date:

Thursday, October 11, 2012

  Actual Average Record
Temperature  
Mean Temperature 58 °F -  
Max Temperature 64 °F 67 °F 77 °F (1996)
Min Temperature 50 °F 51 °F 44 °F (2004)
Degree Days  
Heating Degree Days 8    
Growing Degree Days 8 (Base 50)    
Moisture  
Dew Point 47 °F    
Average Humidity 70    
Maximum Humidity 87    
Minimum Humidity 46    
Precipitation  
Precipitation 0.00 in - - ()
Sea Level Pressure  
Sea Level Pressure 30.19 in    
Wind  
Wind Speed 4 mph ()    
Max Wind Speed 10 mph    
Max Gust Speed -    
Visibility 8.3 miles    
Events      
Averages and records for this station are not official NWS values.
T = Trace of Precipitation, MM = Missing Value Source: Averaged Metar Reports

Daily Weather History Graph

Daily Weather History Graph

Search for Another Location

Airport or City:

Trip Planner

Search our weather history database for the weather conditions in past years. The results will help you decide how hot, cold, wet, or windy it might be!

Date:

Astronomy

Oct. 11, 2012 Rise Set
Actual Time 5:53 AM SAST 6:41 PM SAST
Civil Twilight 5:28 AM SAST 7:06 PM SAST
Nautical Twilight 4:58 AM SAST 7:36 PM SAST
Astronomical Twilight 4:27 AM SAST 8:07 PM SAST
Moon 3:00 AM SAST (10/11) 2:32 PM SAST (10/11)
Length of Visible Light 13h 38m
Length of Day
12h 47m
Waning Crescent, 20% of the Moon is Illuminated
Oct 11
Waning Crescent
Oct 15
New
Oct 22
First Quarter
Oct 29
Full
Nov 7
Last Quarter

Hourly Weather History & Observations

Time (SAST) Temp. Dew Point Humidity Pressure Visibility Wind Dir Wind Speed Gust Speed Precip Events Conditions
12:00 AM 51.8 °F 46.4 °F 82% 30.18 in 6.2 mi NW 3.5 mph - N/A   Overcast
1:00 AM 51.8 °F 46.4 °F 82% 30.18 in 6.2 mi WNW 3.5 mph - N/A   Mostly Cloudy
2:00 AM 53 °F 48 °F 78% 30.19 in 19 mi WNW 3.5 mph - -  
2:00 AM 53.6 °F 48.2 °F 82% 30.18 in 6.2 mi WNW 4.6 mph - N/A   Overcast
3:00 AM 53.6 °F 48.2 °F 82% 30.15 in 6.2 mi NW 3.5 mph - N/A   Overcast
4:00 AM 53.6 °F 48.2 °F 82% 30.15 in 6.2 mi North 3.5 mph - N/A   Overcast
5:00 AM 53 °F 48 °F 77% 30.18 in 12 mi NW 3.5 mph - -   Mostly Cloudy
5:00 AM 53.6 °F 48.2 °F 82% 30.15 in 6.2 mi WNW 3.5 mph - N/A   Mostly Cloudy
6:00 AM 53.6 °F 46.4 °F 77% 30.18 in 6.2 mi WNW 2.3 mph - N/A   Scattered Clouds
7:00 AM 53.6 °F 48.2 °F 82% 30.18 in 6.2 mi West 1.2 mph - N/A   Partly Cloudy
8:00 AM 58 °F 48 °F 62% 30.21 in 12 mi 2.3 mph - -   Scattered Clouds
8:00 AM 57.2 °F 48.2 °F 72% 30.21 in 6.2 mi Variable 1.2 mph - N/A   Partly Cloudy
9:00 AM 59.0 °F 44.6 °F 59% 30.18 in 6.2 mi Variable 2.3 mph - N/A   Partly Cloudy
10:00 AM 62.6 °F 46.4 °F 55% 30.18 in 6.2 mi Variable 3.5 mph - N/A   Partly Cloudy
11:00 AM 60.8 °F 46.4 °F 59% 30.21 in 6.2 mi South 10.4 mph - N/A   Partly Cloudy
12:00 PM 62.6 °F 48.2 °F 59% 30.18 in 6.2 mi South 6.9 mph - N/A   Partly Cloudy
1:00 PM 62.6 °F 48.2 °F 59% 30.18 in 6.2 mi SSE 10.4 mph - N/A   Partly Cloudy
2:00 PM 64 °F 48 °F 46% 30.17 in 19 mi SSE 10.4 mph - -   Scattered Clouds
2:00 PM 64.4 °F 48.2 °F 56% 30.18 in 6.2 mi SSE 10.4 mph - N/A   Partly Cloudy
3:00 PM 64.4 °F 48.2 °F 56% 30.15 in 6.2 mi South 9.2 mph - N/A   Partly Cloudy
4:00 PM 62.6 °F 46.4 °F 55% 30.18 in 6.2 mi SSE 10.4 mph - N/A   Partly Cloudy
5:00 PM 61 °F 46 °F 47% 30.19 in 19 mi South 8.1 mph - -  
5:00 PM 60.8 °F 46.4 °F 59% 30.18 in - SSE 8.1 mph - N/A   Clear
6:00 PM 59.0 °F 48.2 °F 67% 30.21 in - South 8.1 mph - N/A   Clear
7:00 PM 57.2 °F 48.2 °F 72% 30.21 in 6.2 mi ESE 3.5 mph - N/A   Partly Cloudy
8:00 PM 55 °F 47 °F 68% 30.26 in 12 mi Calm Calm - -   Scattered Clouds
8:00 PM 55.4 °F 48.2 °F 77% 30.24 in 6.2 mi Variable 1.2 mph - N/A   Partly Cloudy
9:00 PM 53.6 °F 48.2 °F 82% 30.27 in 6.2 mi NNW 5.8 mph - N/A   Partly Cloudy
10:00 PM 51.8 °F 46.4 °F 82% 30.27 in - NNW 3.5 mph - N/A   Clear
11:00 PM 50.0 °F 46.4 °F 87% 30.27 in - North 3.5 mph - N/A   Clear